"Pseudo-MPEC" for MV001MS

Created 2024 Sep 11 2:22:08 UT using Find_Orb

Click here for an explanation of pseudo-MPECs

 
 Astrometry: 
     MV001MS*KC2024 08 29.92179 21 36 29.23 +17 31 09.0    ~8UNM 19.0 VqNEOCP126
     MV001MS KC2024 08 29.92771 21 36 28.82 +17 31 08.9    ~8UNM 19.0 VqNEOCP126
     MV001MS KC2024 08 29.93323 21 36 28.51 +17 31 08.6    ~8UNM 19.0 VqNEOCP126

Station data:
(126) Monte Viseggi  (N44.133167 E9.790300)  Italy. 0.40-m f/5 reflector.

Orbital elements:  MV001MS
   Perihelion 2025 Aug 4.67067 +/- 435 TT = 16:05:45 (JD 2460892.17067)
Epoch 2024 Aug 30.0 TT = JDT 2460552.5   Earth MOID: 0.8965      AutoNEOCP
M 295.79144133 +/- 60               (J2000 ecliptic)
n   0.18903180 +/- 0.164            Peri.  159.25895 +/- 90
a   3.00685717 +/- 1.74             Node   286.69356 +/- 41
e   0.3796897 +/- 0.258             Incl.   26.21364 +/- 32
P   5.21398                H 14.51  G  0.15   U 11.6  SR
q 1.86518431 +/- 1.15    Q 4.14853003 +/- 47.6
From 3 observations 2024 Aug. 29 (16.5 min); mean residual 0".18
Residuals in arcseconds: 
240829 126  .17+  .03-    240829 126  .36-  .07+    240829 126  .19+  .04-    

Ephemerides (geocentric):
Date (UTC) HH   RA             Dec           delta  r     elong  mag " sig PA
---- --------  ------------   ------------  ------ ------ -----  --- --------
2024 09 11 02  21 24 42.823   +17 08 11.35  1.9977 2.8785 144.7 19.0  24d 102
2024 09 11 03  21 24 40.610   +17 08 03.64  1.9977 2.8783 144.6 19.0  24d 102
2024 09 11 04  21 24 38.398   +17 07 55.92  1.9978 2.8781 144.6 19.0  24d 102
2024 09 11 05  21 24 36.188   +17 07 48.19  1.9978 2.8780 144.6 19.0  24d 102
2024 09 11 06  21 24 33.980   +17 07 40.43  1.9978 2.8778 144.6 19.0  24d 102
2024 09 11 07  21 24 31.773   +17 07 32.66  1.9978 2.8777 144.5 19.0  24d 102
2024 09 11 08  21 24 29.568   +17 07 24.87  1.9979 2.8775 144.5 19.0  24d 102
2024 09 11 09  21 24 27.366   +17 07 17.06  1.9979 2.8773 144.5 19.0  24d 102
2024 09 11 10  21 24 25.164   +17 07 09.23  1.9979 2.8772 144.5 19.0  24d 102
2024 09 11 11  21 24 22.965   +17 07 01.38  1.9980 2.8770 144.4 19.0  24d 102
2024 09 11 12  21 24 20.768   +17 06 53.52  1.9980 2.8768 144.4 19.0  24d 102
2024 09 11 13  21 24 18.572   +17 06 45.64  1.9980 2.8767 144.4 19.0  24d 102
2024 09 11 14  21 24 16.378   +17 06 37.74  1.9980 2.8765 144.4 19.0  24d 102
2024 09 11 15  21 24 14.186   +17 06 29.83  1.9981 2.8764 144.3 19.0  24d 102
2024 09 11 16  21 24 11.996   +17 06 21.90  1.9981 2.8762 144.3 19.0  24d 102
2024 09 11 17  21 24 09.807   +17 06 13.95  1.9981 2.8760 144.3 19.0  24d 102
2024 09 11 18  21 24 07.621   +17 06 05.98  1.9982 2.8759 144.3 19.0  24d 102
2024 09 11 19  21 24 05.436   +17 05 57.99  1.9982 2.8757 144.2 19.0  24d 102
2024 09 11 20  21 24 03.253   +17 05 49.99  1.9982 2.8755 144.2 19.0  24d 102
2024 09 11 21  21 24 01.072   +17 05 41.97  1.9983 2.8754 144.2 19.0  24d 102
2024 09 11 22  21 23 58.892   +17 05 33.93  1.9983 2.8752 144.2 19.0  24d 102
2024 09 11 23  21 23 56.715   +17 05 25.88  1.9983 2.8750 144.1 19.0  24d 102
2024 09 12 00  21 23 54.539   +17 05 17.81  1.9984 2.8749 144.1 19.0  24d 102
2024 09 12 01  21 23 52.366   +17 05 09.72  1.9984 2.8747 144.1 19.0  24d 102
2024 09 12 02  21 23 50.194   +17 05 01.61  1.9984 2.8746 144.0 19.0  24d 102
2024 09 12 03  21 23 48.024   +17 04 53.49  1.9985 2.8744 144.0 19.0  24d 102
2024 09 12 04  21 23 45.855   +17 04 45.34  1.9985 2.8742 144.0 19.0  24d 102
2024 09 12 05  21 23 43.689   +17 04 37.19  1.9986 2.8741 144.0 19.0  24d 102
2024 09 12 06  21 23 41.525   +17 04 29.01  1.9986 2.8739 143.9 19.0  24d 102
2024 09 12 07  21 23 39.362   +17 04 20.82  1.9986 2.8737 143.9 19.0  24d 102
2024 09 12 08  21 23 37.201   +17 04 12.61  1.9987 2.8736 143.9 19.0  24d 102
2024 09 12 09  21 23 35.042   +17 04 04.38  1.9987 2.8734 143.9 19.0  24d 102
2024 09 12 10  21 23 32.885   +17 03 56.14  1.9987 2.8733 143.8 19.0  24d 102
2024 09 12 11  21 23 30.730   +17 03 47.88  1.9988 2.8731 143.8 19.0  24d 102
2024 09 12 12  21 23 28.577   +17 03 39.60  1.9988 2.8729 143.8 19.0  24d 102
2024 09 12 13  21 23 26.426   +17 03 31.30  1.9989 2.8728 143.8 19.0  24d 102
2024 09 12 14  21 23 24.276   +17 03 22.99  1.9989 2.8726 143.7 19.0  24d 102
2024 09 12 15  21 23 22.129   +17 03 14.66  1.9989 2.8724 143.7 19.0  24d 102
2024 09 12 16  21 23 19.983   +17 03 06.32  1.9990 2.8723 143.7 19.0  24d 102
2024 09 12 17  21 23 17.839   +17 02 57.95  1.9990 2.8721 143.7 19.0  24d 101
2024 09 12 18  21 23 15.697   +17 02 49.57  1.9991 2.8719 143.6 19.0  24d 101
2024 09 12 19  21 23 13.557   +17 02 41.18  1.9991 2.8718 143.6 19.0  24d 101
2024 09 12 20  21 23 11.419   +17 02 32.77  1.9991 2.8716 143.6 19.0  24d 101
2024 09 12 21  21 23 09.283   +17 02 24.34  1.9992 2.8715 143.5 19.0  24d 101
2024 09 12 22  21 23 07.149   +17 02 15.89  1.9992 2.8713 143.5 19.0  24d 101
2024 09 12 23  21 23 05.016   +17 02 07.43  1.9993 2.8711 143.5 19.0  24d 101
2024 09 13 00  21 23 02.886   +17 01 58.95  1.9993 2.8710 143.5 19.0  24d 101
2024 09 13 01  21 23 00.757   +17 01 50.45  1.9994 2.8708 143.4 19.0  24d 101